Year,Month,Day,Hour,Minute,Value (Times are PST for temperature in C)
2011,09,20,00,00,9.90
2011,09,20,00,01,9.90
2011,09,20,00,02,9.90
2011,09,20,00,03,9.80
2011,09,20,00,04,9.80
2011,09,20,00,05,9.80
2011,09,20,00,06,9.80
2011,09,20,00,07,9.80
2011,09,20,00,08,9.80
2011,09,20,00,09,9.80
2011,09,20,00,10,9.80
2011,09,20,00,11,9.80
2011,09,20,00,12,9.80
2011,09,20,00,13,9.80
2011,09,20,00,14,9.80
2011,09,20,00,15,9.80
2011,09,20,00,16,9.80
2011,09,20,00,17,9.80
2011,09,20,00,18,9.80
2011,09,20,00,19,9.70
2011,09,20,00,20,9.70
2011,09,20,00,21,9.70
2011,09,20,00,22,9.70
2011,09,20,00,23,9.70
2011,09,20,00,24,9.70
2011,09,20,00,25,9.60
2011,09,20,00,26,9.60
2011,09,20,00,27,9.60
2011,09,20,00,28,9.60
2011,09,20,00,29,9.60
2011,09,20,00,30,9.50
2011,09,20,00,31,9.50
2011,09,20,00,32,9.50
2011,09,20,00,33,9.50
2011,09,20,00,34,9.40
2011,09,20,00,35,9.40
2011,09,20,00,36,9.40
2011,09,20,00,37,9.40
2011,09,20,00,38,9.40
2011,09,20,00,39,9.40
2011,09,20,00,40,9.40
2011,09,20,00,41,9.40
2011,09,20,00,42,9.40
2011,09,20,00,43,9.40
2011,09,20,00,44,9.40
2011,09,20,00,45,9.40
2011,09,20,00,46,9.30
2011,09,20,00,47,9.30
2011,09,20,00,48,9.30
2011,09,20,00,49,9.30
2011,09,20,00,50,9.30
2011,09,20,00,51,9.20
2011,09,20,00,52,9.20
2011,09,20,00,53,9.20
2011,09,20,00,54,9.20
2011,09,20,00,55,9.20
2011,09,20,00,56,9.20
2011,09,20,00,57,9.20
2011,09,20,00,58,9.20
2011,09,20,00,59,9.20
2011,09,20,01,00,9.20
2011,09,20,01,01,9.20
2011,09,20,01,02,9.20
2011,09,20,01,03,9.20
2011,09,20,01,04,9.10
2011,09,20,01,05,9.10
2011,09,20,01,06,9.10
2011,09,20,01,07,9.10
2011,09,20,01,08,9.00
2011,09,20,01,09,9.00
2011,09,20,01,10,9.00
2011,09,20,01,11,9.00
2011,09,20,01,12,8.90
2011,09,20,01,13,8.90
2011,09,20,01,14,8.90
2011,09,20,01,15,8.90
2011,09,20,01,16,8.90
2011,09,20,01,17,8.90
2011,09,20,01,18,8.90
2011,09,20,01,19,8.80
2011,09,20,01,20,8.80
2011,09,20,01,21,8.70
2011,09,20,01,22,8.70
2011,09,20,01,23,8.70
2011,09,20,01,24,8.70
2011,09,20,01,25,8.70
2011,09,20,01,26,8.70
2011,09,20,01,27,8.70
2011,09,20,01,28,8.70
2011,09,20,01,29,8.70
2011,09,20,01,30,8.70
2011,09,20,01,31,8.70
2011,09,20,01,32,8.60
2011,09,20,01,33,8.60
2011,09,20,01,34,8.60
2011,09,20,01,35,8.60
2011,09,20,01,36,8.60
2011,09,20,01,37,8.60
2011,09,20,01,38,8.50
2011,09,20,01,39,8.50
2011,09,20,01,40,8.50
2011,09,20,01,41,8.50
2011,09,20,01,42,8.50
2011,09,20,01,43,8.50
2011,09,20,01,44,8.50
2011,09,20,01,45,8.60
2011,09,20,01,46,8.50
2011,09,20,01,47,8.50
2011,09,20,01,48,8.50
2011,09,20,01,49,8.50
2011,09,20,01,50,8.50
2011,09,20,01,51,8.50
2011,09,20,01,52,8.50
2011,09,20,01,53,8.50
2011,09,20,01,54,8.50
2011,09,20,01,55,8.50
2011,09,20,01,56,8.50
2011,09,20,01,57,8.50
2011,09,20,01,58,8.50
2011,09,20,01,59,8.50
2011,09,20,02,00,8.50
2011,09,20,02,01,8.50
2011,09,20,02,02,8.50
2011,09,20,02,03,8.40
2011,09,20,02,04,8.40
2011,09,20,02,05,8.40
2011,09,20,02,06,8.40
2011,09,20,02,07,8.30
2011,09,20,02,08,8.30
2011,09,20,02,09,8.30
2011,09,20,02,10,8.30
2011,09,20,02,11,8.20
2011,09,20,02,12,8.20
2011,09,20,02,13,8.20
2011,09,20,02,14,8.20
2011,09,20,02,15,8.20
2011,09,20,02,16,8.20
2011,09,20,02,17,8.20
2011,09,20,02,18,8.20
2011,09,20,02,19,8.20
2011,09,20,02,20,8.20
2011,09,20,02,21,8.20
2011,09,20,02,22,8.20
2011,09,20,02,23,8.20
2011,09,20,02,24,8.20
2011,09,20,02,25,8.20
2011,09,20,02,26,8.20
2011,09,20,02,27,8.20
2011,09,20,02,28,8.20
2011,09,20,02,29,8.20
2011,09,20,02,30,8.20
2011,09,20,02,31,8.20
2011,09,20,02,32,8.20
2011,09,20,02,33,8.20
2011,09,20,02,34,8.20
2011,09,20,02,35,8.20
2011,09,20,02,36,8.20
2011,09,20,02,37,8.20
2011,09,20,02,38,8.20
2011,09,20,02,39,8.20
2011,09,20,02,40,8.20
2011,09,20,02,41,8.20
2011,09,20,02,42,8.20
2011,09,20,02,43,8.10
2011,09,20,02,44,8.10
2011,09,20,02,45,8.10
2011,09,20,02,46,8.10
2011,09,20,02,47,8.00
2011,09,20,02,48,8.00
2011,09,20,02,49,8.00
2011,09,20,02,50,7.90
2011,09,20,02,51,7.90
2011,09,20,02,52,7.90
2011,09,20,02,53,7.90
2011,09,20,02,54,7.80
2011,09,20,02,55,7.80
2011,09,20,02,56,7.80
2011,09,20,02,57,7.80
2011,09,20,02,58,7.80
2011,09,20,02,59,7.80
2011,09,20,03,00,7.80
2011,09,20,03,01,7.80
2011,09,20,03,02,7.70
2011,09,20,03,03,7.70
2011,09,20,03,04,7.70
2011,09,20,03,05,7.70
2011,09,20,03,06,7.80
2011,09,20,03,07,7.80
2011,09,20,03,08,7.80
2011,09,20,03,09,7.80
2011,09,20,03,10,7.80
2011,09,20,03,11,7.80
2011,09,20,03,12,7.80
2011,09,20,03,13,7.80
2011,09,20,03,14,7.80
2011,09,20,03,15,7.80
2011,09,20,03,16,7.80
2011,09,20,03,17,7.80
2011,09,20,03,18,7.80
2011,09,20,03,19,7.80
2011,09,20,03,20,7.80
2011,09,20,03,21,7.80
2011,09,20,03,22,7.80
2011,09,20,03,23,7.70
2011,09,20,03,24,7.70
2011,09,20,03,25,7.70
2011,09,20,03,26,7.70
2011,09,20,03,27,7.80
2011,09,20,03,28,7.80
2011,09,20,03,29,7.80
2011,09,20,03,30,7.80
2011,09,20,03,31,7.80
2011,09,20,03,32,7.80
2011,09,20,03,33,7.80
2011,09,20,03,34,7.80
2011,09,20,03,35,7.80
2011,09,20,03,36,7.80
2011,09,20,03,37,7.80
2011,09,20,03,38,7.80
2011,09,20,03,39,7.80
2011,09,20,03,40,7.70
2011,09,20,03,41,7.70
2011,09,20,03,42,7.70
2011,09,20,03,43,7.70
2011,09,20,03,44,7.70
2011,09,20,03,45,7.70
2011,09,20,03,46,7.60
2011,09,20,03,47,7.60
2011,09,20,03,48,7.60
2011,09,20,03,49,7.60
2011,09,20,03,50,7.70
2011,09,20,03,51,7.70
2011,09,20,03,52,7.70
2011,09,20,03,53,7.70
2011,09,20,03,54,7.70
2011,09,20,03,55,7.70
2011,09,20,03,56,7.70
2011,09,20,03,57,7.60
2011,09,20,03,58,7.60
2011,09,20,03,59,7.60
2011,09,20,04,00,7.60
2011,09,20,04,01,7.50
2011,09,20,04,02,7.50
2011,09,20,04,03,7.50
2011,09,20,04,04,7.50
2011,09,20,04,05,7.50
2011,09,20,04,06,7.40
2011,09,20,04,07,7.40
2011,09,20,04,08,7.40
2011,09,20,04,09,7.40
2011,09,20,04,10,7.40
2011,09,20,04,11,7.40
2011,09,20,04,12,7.30
2011,09,20,04,13,7.30
2011,09,20,04,14,7.30
2011,09,20,04,15,7.30
2011,09,20,04,16,7.30
2011,09,20,04,17,7.30
2011,09,20,04,18,7.30
2011,09,20,04,19,7.30
2011,09,20,04,20,7.30
2011,09,20,04,21,7.30
2011,09,20,04,22,7.40
2011,09,20,04,23,7.40
2011,09,20,04,24,7.40
2011,09,20,04,25,7.50
2011,09,20,04,26,7.60
2011,09,20,04,27,7.70
2011,09,20,04,28,7.80
2011,09,20,04,29,7.90
2011,09,20,04,30,7.90
2011,09,20,04,31,7.90
2011,09,20,04,32,7.80
2011,09,20,04,33,7.80
2011,09,20,04,34,7.80
2011,09,20,04,35,7.80
2011,09,20,04,36,7.70
2011,09,20,04,37,7.70
2011,09,20,04,38,7.60
2011,09,20,04,39,7.60
2011,09,20,04,40,7.50
2011,09,20,04,41,7.50
2011,09,20,04,42,7.50
2011,09,20,04,43,7.40
2011,09,20,04,44,7.40
2011,09,20,04,45,7.40
2011,09,20,04,46,7.40
2011,09,20,04,47,7.40
2011,09,20,04,48,7.40
2011,09,20,04,49,7.40
2011,09,20,04,50,7.40
2011,09,20,04,51,7.40
2011,09,20,04,52,7.50
2011,09,20,04,53,7.50
2011,09,20,04,54,7.60
2011,09,20,04,55,7.60
2011,09,20,04,56,7.80
2011,09,20,04,57,7.90
2011,09,20,04,58,8.00
2011,09,20,04,59,8.10
2011,09,20,05,00,8.30
2011,09,20,05,01,8.40
2011,09,20,05,02,8.40
2011,09,20,05,03,8.40
2011,09,20,05,04,8.50
2011,09,20,05,05,8.50
2011,09,20,05,06,8.50
2011,09,20,05,07,8.40
2011,09,20,05,08,8.40
2011,09,20,05,09,8.50
2011,09,20,05,10,8.40
2011,09,20,05,11,8.40
2011,09,20,05,12,8.40
2011,09,20,05,13,8.40
2011,09,20,05,14,8.30
2011,09,20,05,15,8.30
2011,09,20,05,16,8.30
2011,09,20,05,17,8.20
2011,09,20,05,18,8.20
2011,09,20,05,19,8.20
2011,09,20,05,20,8.30
2011,09,20,05,21,8.40
2011,09,20,05,22,8.50
2011,09,20,05,23,8.70
2011,09,20,05,24,8.70
2011,09,20,05,25,8.80
2011,09,20,05,26,8.90
2011,09,20,05,27,9.00
2011,09,20,05,28,9.00
2011,09,20,05,29,9.00
2011,09,20,05,30,9.00
2011,09,20,05,31,9.10
2011,09,20,05,32,9.20
2011,09,20,05,33,9.20
2011,09,20,05,34,9.30
2011,09,20,05,35,9.30
2011,09,20,05,36,9.10
2011,09,20,05,37,9.00
2011,09,20,05,38,8.90
2011,09,20,05,39,8.80
2011,09,20,05,40,8.70
2011,09,20,05,41,8.70
2011,09,20,05,42,8.70
2011,09,20,05,43,8.70
2011,09,20,05,44,8.70
2011,09,20,05,45,8.70
2011,09,20,05,46,8.70
2011,09,20,05,47,8.60
2011,09,20,05,48,8.50
2011,09,20,05,49,8.50
2011,09,20,05,50,8.40
2011,09,20,05,51,8.30
2011,09,20,05,52,8.30
2011,09,20,05,53,8.20
2011,09,20,05,54,8.20
2011,09,20,05,55,8.20
2011,09,20,05,56,8.20
2011,09,20,05,57,8.20
2011,09,20,05,58,8.20
2011,09,20,05,59,8.20
2011,09,20,06,00,8.20
2011,09,20,06,01,8.20
2011,09,20,06,02,8.20
2011,09,20,06,03,8.20
2011,09,20,06,04,8.20
2011,09,20,06,05,8.10
2011,09,20,06,06,8.10
2011,09,20,06,07,8.00
2011,09,20,06,08,8.00
2011,09,20,06,09,8.00
2011,09,20,06,10,7.90
2011,09,20,06,11,7.90
2011,09,20,06,12,7.90
2011,09,20,06,13,7.90
2011,09,20,06,14,7.90
2011,09,20,06,15,7.90
2011,09,20,06,16,7.90
2011,09,20,06,17,8.00
2011,09,20,06,18,8.00
2011,09,20,06,19,8.00
2011,09,20,06,20,8.00
2011,09,20,06,21,8.10
2011,09,20,06,22,8.10
2011,09,20,06,23,8.10
2011,09,20,06,24,8.10
2011,09,20,06,25,8.20
2011,09,20,06,26,8.10
2011,09,20,06,27,8.20
2011,09,20,06,28,8.20
2011,09,20,06,29,8.20
2011,09,20,06,30,8.20
2011,09,20,06,31,8.20
2011,09,20,06,32,8.20
2011,09,20,06,33,8.20
2011,09,20,06,34,8.20
2011,09,20,06,35,8.20
2011,09,20,06,36,8.20
2011,09,20,06,37,8.20
2011,09,20,06,38,8.20
2011,09,20,06,39,8.20
2011,09,20,06,40,8.20
2011,09,20,06,41,8.20
2011,09,20,06,42,8.20
2011,09,20,06,43,8.20
2011,09,20,06,44,8.20
2011,09,20,06,45,8.20
2011,09,20,06,46,8.20
2011,09,20,06,47,8.20
2011,09,20,06,48,8.30
2011,09,20,06,49,8.30
2011,09,20,06,50,8.30
2011,09,20,06,51,8.30
2011,09,20,06,52,8.30
2011,09,20,06,53,8.30
2011,09,20,06,54,8.30
2011,09,20,06,55,8.30
2011,09,20,06,56,8.30
2011,09,20,06,57,8.30
2011,09,20,06,58,8.30
2011,09,20,06,59,8.40
2011,09,20,07,00,8.40
2011,09,20,07,01,8.50
2011,09,20,07,02,8.50
2011,09,20,07,03,8.50
2011,09,20,07,04,8.50
2011,09,20,07,05,8.50
2011,09,20,07,06,8.50
2011,09,20,07,07,8.50
2011,09,20,07,08,8.40
2011,09,20,07,09,8.40
2011,09,20,07,10,8.40
2011,09,20,07,11,8.40
2011,09,20,07,12,8.40
2011,09,20,07,13,8.40
2011,09,20,07,14,8.40
2011,09,20,07,15,8.40
2011,09,20,07,16,8.40
2011,09,20,07,17,8.40
2011,09,20,07,18,8.40
2011,09,20,07,19,8.40
2011,09,20,07,20,8.40
2011,09,20,07,21,8.40
2011,09,20,07,22,8.30
2011,09,20,07,23,8.40
2011,09,20,07,24,8.40
2011,09,20,07,25,8.40
2011,09,20,07,26,8.50
2011,09,20,07,27,8.50
2011,09,20,07,28,8.50
2011,09,20,07,29,8.50
2011,09,20,07,30,8.60
2011,09,20,07,31,8.60
2011,09,20,07,32,8.70
2011,09,20,07,33,8.70
2011,09,20,07,34,8.70
2011,09,20,07,35,8.80
2011,09,20,07,36,8.80
2011,09,20,07,37,8.90
2011,09,20,07,38,8.90
2011,09,20,07,39,9.00
2011,09,20,07,40,9.10
2011,09,20,07,41,9.20
2011,09,20,07,42,9.20
2011,09,20,07,43,9.30
2011,09,20,07,44,9.30
2011,09,20,07,45,9.40
2011,09,20,07,46,9.40
2011,09,20,07,47,9.40
2011,09,20,07,48,9.50
2011,09,20,07,49,9.50
2011,09,20,07,50,9.60
2011,09,20,07,51,9.60
2011,09,20,07,52,9.70
2011,09,20,07,53,9.70
2011,09,20,07,54,9.80
2011,09,20,07,55,9.80
2011,09,20,07,56,9.90
2011,09,20,07,57,9.90
2011,09,20,07,58,9.90
2011,09,20,07,59,10.00
2011,09,20,08,00,10.10
2011,09,20,08,01,10.10
2011,09,20,08,02,10.10
2011,09,20,08,03,10.10
2011,09,20,08,04,10.20
2011,09,20,08,05,10.20
2011,09,20,08,06,10.20
2011,09,20,08,07,10.20
2011,09,20,08,08,10.30
2011,09,20,08,09,10.30
2011,09,20,08,10,10.30
2011,09,20,08,11,10.40
2011,09,20,08,12,10.40
2011,09,20,08,13,10.60
2011,09,20,08,14,10.60
2011,09,20,08,15,10.60
2011,09,20,08,16,10.60
2011,09,20,08,17,10.70
2011,09,20,08,18,10.70
2011,09,20,08,19,10.80
2011,09,20,08,20,10.80
2011,09,20,08,21,10.90
2011,09,20,08,22,11.00
2011,09,20,08,23,11.10
2011,09,20,08,24,11.20
2011,09,20,08,25,11.30
2011,09,20,08,26,11.40
2011,09,20,08,27,11.50
2011,09,20,08,28,11.60
2011,09,20,08,29,11.70
2011,09,20,08,30,11.80
2011,09,20,08,31,11.80
2011,09,20,08,32,11.80
2011,09,20,08,33,11.90
2011,09,20,08,34,11.90
2011,09,20,08,35,11.90
2011,09,20,08,36,12.00
2011,09,20,08,37,12.10
2011,09,20,08,38,12.20
2011,09,20,08,39,12.30
2011,09,20,08,40,12.40
2011,09,20,08,41,12.50
2011,09,20,08,42,12.50
2011,09,20,08,43,12.60
2011,09,20,08,44,12.70
2011,09,20,08,45,12.90
2011,09,20,08,46,13.00
2011,09,20,08,47,13.10
2011,09,20,08,48,13.20
2011,09,20,08,49,13.20
2011,09,20,08,50,13.30
2011,09,20,08,51,13.30
2011,09,20,08,52,13.30
2011,09,20,08,53,13.40
2011,09,20,08,54,13.50
2011,09,20,08,55,13.60
2011,09,20,08,56,13.60
2011,09,20,08,57,13.70
2011,09,20,08,58,13.80
2011,09,20,08,59,13.90
2011,09,20,09,00,14.00
2011,09,20,09,01,14.10
2011,09,20,09,02,14.20
2011,09,20,09,03,14.20
2011,09,20,09,04,14.30
2011,09,20,09,05,14.40
2011,09,20,09,06,14.40
2011,09,20,09,07,14.50
2011,09,20,09,08,14.60
2011,09,20,09,09,14.60
2011,09,20,09,10,14.70
2011,09,20,09,11,14.80
2011,09,20,09,12,14.80
2011,09,20,09,13,14.80
2011,09,20,09,14,14.80
2011,09,20,09,15,14.80
2011,09,20,09,16,14.90
2011,09,20,09,17,14.90
2011,09,20,09,18,14.90
2011,09,20,09,19,15.00
2011,09,20,09,20,15.00
2011,09,20,09,21,15.00
2011,09,20,09,22,15.00
2011,09,20,09,23,15.00
2011,09,20,09,24,14.90
2011,09,20,09,25,15.00
2011,09,20,09,26,15.00
2011,09,20,09,27,15.00
2011,09,20,09,28,15.10
2011,09,20,09,29,15.10
2011,09,20,09,30,15.20
2011,09,20,09,31,15.20
2011,09,20,09,32,15.20
2011,09,20,09,33,15.30
2011,09,20,09,34,15.30
2011,09,20,09,35,15.30
2011,09,20,09,36,15.50
2011,09,20,09,37,15.50
2011,09,20,09,38,15.50
2011,09,20,09,39,15.60
2011,09,20,09,40,15.60
2011,09,20,09,41,15.60
2011,09,20,09,42,15.50
2011,09,20,09,43,15.50
2011,09,20,09,44,15.40
2011,09,20,09,45,15.40
2011,09,20,09,46,15.40
2011,09,20,09,47,15.40
2011,09,20,09,48,15.40
2011,09,20,09,49,15.40
2011,09,20,09,50,15.40
2011,09,20,09,51,15.50
2011,09,20,09,52,15.50
2011,09,20,09,53,15.60
2011,09,20,09,54,15.60
2011,09,20,09,55,15.70
2011,09,20,09,56,15.70
2011,09,20,09,57,15.60
2011,09,20,09,58,15.60
2011,09,20,09,59,15.60
2011,09,20,10,00,15.60
2011,09,20,10,01,15.60
2011,09,20,10,02,15.60
2011,09,20,10,03,15.50
2011,09,20,10,04,15.50
2011,09,20,10,05,15.50
2011,09,20,10,06,15.50
2011,09,20,10,07,15.50
2011,09,20,10,08,15.50
2011,09,20,10,09,15.50
2011,09,20,10,10,15.50
2011,09,20,10,11,15.50
2011,09,20,10,12,15.60
2011,09,20,10,13,15.60
2011,09,20,10,14,15.60
2011,09,20,10,15,15.70
2011,09,20,10,16,15.80
2011,09,20,10,17,15.80
2011,09,20,10,18,15.80
2011,09,20,10,19,15.80
2011,09,20,10,20,15.80
2011,09,20,10,21,15.90
2011,09,20,10,22,16.00
2011,09,20,10,23,16.10
2011,09,20,10,24,16.10
2011,09,20,10,25,16.10
2011,09,20,10,26,16.20
2011,09,20,10,27,16.10
2011,09,20,10,28,16.10
2011,09,20,10,29,16.10
2011,09,20,10,30,16.00
2011,09,20,10,31,15.90
2011,09,20,10,32,15.80
2011,09,20,10,33,15.80
2011,09,20,10,34,15.80
2011,09,20,10,35,15.70
2011,09,20,10,36,15.70
2011,09,20,10,37,15.70
2011,09,20,10,38,15.70
2011,09,20,10,39,15.80
2011,09,20,10,40,15.80
2011,09,20,10,41,15.80
2011,09,20,10,42,15.90
2011,09,20,10,43,16.00
2011,09,20,10,44,16.10
2011,09,20,10,45,16.10
2011,09,20,10,46,16.10
2011,09,20,10,47,16.10
2011,09,20,10,48,16.10
2011,09,20,10,49,16.10
2011,09,20,10,50,16.10
2011,09,20,10,51,16.10
2011,09,20,10,52,16.10
2011,09,20,10,53,16.10
2011,09,20,10,54,16.10
2011,09,20,10,55,16.20
2011,09,20,10,56,16.20
2011,09,20,10,57,16.30
2011,09,20,10,58,16.40
2011,09,20,10,59,16.40
2011,09,20,11,00,16.40
2011,09,20,11,01,16.40
2011,09,20,11,02,16.50
2011,09,20,11,03,16.70
2011,09,20,11,04,16.70
2011,09,20,11,05,16.80
2011,09,20,11,06,17.00
2011,09,20,11,07,17.00
2011,09,20,11,08,16.90
2011,09,20,11,09,16.90
2011,09,20,11,10,16.90
2011,09,20,11,11,17.00
2011,09,20,11,12,17.00
2011,09,20,11,13,17.10
2011,09,20,11,14,17.20
2011,09,20,11,15,17.20
2011,09,20,11,16,17.20
2011,09,20,11,17,17.20
2011,09,20,11,18,17.30
2011,09,20,11,19,17.30
2011,09,20,11,20,17.50
2011,09,20,11,21,17.50
2011,09,20,11,22,17.60
2011,09,20,11,23,17.70
2011,09,20,11,24,17.80
2011,09,20,11,25,17.80
2011,09,20,11,26,17.90
2011,09,20,11,27,17.80
2011,09,20,11,28,17.90
2011,09,20,11,29,17.90
2011,09,20,11,30,17.90
2011,09,20,11,31,17.90
2011,09,20,11,32,18.10
2011,09,20,11,33,18.10
2011,09,20,11,34,18.10
2011,09,20,11,35,18.20
2011,09,20,11,36,18.20
2011,09,20,11,37,18.20
2011,09,20,11,38,18.30
2011,09,20,11,39,18.30
2011,09,20,11,40,18.30
2011,09,20,11,41,18.20
2011,09,20,11,42,18.30
2011,09,20,11,43,18.30
2011,09,20,11,44,18.20
2011,09,20,11,45,18.00
2011,09,20,11,46,17.90
2011,09,20,11,47,17.80
2011,09,20,11,48,17.70
2011,09,20,11,49,17.60
2011,09,20,11,50,17.50
2011,09,20,11,51,17.40
2011,09,20,11,52,17.30
2011,09,20,11,53,17.30
2011,09,20,11,54,17.30
2011,09,20,11,55,17.30
2011,09,20,11,56,17.30
2011,09,20,11,57,17.30
2011,09,20,11,58,17.30
2011,09,20,11,59,17.30
2011,09,20,12,00,17.20
2011,09,20,12,01,17.20
2011,09,20,12,02,17.20
2011,09,20,12,03,17.20
2011,09,20,12,04,17.20
2011,09,20,12,05,17.20
2011,09,20,12,06,17.30
2011,09,20,12,07,17.30
2011,09,20,12,08,17.30
2011,09,20,12,09,17.20
2011,09,20,12,10,17.10
2011,09,20,12,11,17.10
2011,09,20,12,12,17.10
2011,09,20,12,13,17.10
2011,09,20,12,14,17.20
2011,09,20,12,15,17.10
2011,09,20,12,16,17.00
2011,09,20,12,17,17.00
2011,09,20,12,18,17.00
2011,09,20,12,19,17.00
2011,09,20,12,20,17.00
2011,09,20,12,21,17.10
2011,09,20,12,22,17.10
2011,09,20,12,23,17.10
2011,09,20,12,24,17.20
2011,09,20,12,25,17.30
2011,09,20,12,26,17.30
2011,09,20,12,27,17.30
2011,09,20,12,28,17.50
2011,09,20,12,29,17.50
2011,09,20,12,30,17.50
2011,09,20,12,31,17.60
2011,09,20,12,32,17.70
2011,09,20,12,33,17.70
2011,09,20,12,34,17.70
2011,09,20,12,35,17.70
2011,09,20,12,36,17.50
2011,09,20,12,37,17.50
2011,09,20,12,38,17.40
2011,09,20,12,39,17.40
2011,09,20,12,40,17.40
2011,09,20,12,41,17.50
2011,09,20,12,42,17.60
2011,09,20,12,43,17.70
2011,09,20,12,44,17.90
2011,09,20,12,45,18.00
2011,09,20,12,46,18.20
2011,09,20,12,47,18.30
2011,09,20,12,48,18.40
2011,09,20,12,49,18.50
2011,09,20,12,50,18.60
2011,09,20,12,51,18.60
2011,09,20,12,52,18.70
2011,09,20,12,53,18.80
2011,09,20,12,54,18.80
2011,09,20,12,55,18.80
2011,09,20,12,56,18.80
2011,09,20,12,57,18.80
2011,09,20,12,58,18.90
2011,09,20,12,59,18.90
2011,09,20,13,00,19.00
2011,09,20,13,01,19.10
2011,09,20,13,02,19.10
2011,09,20,13,03,19.10
2011,09,20,13,04,19.10
2011,09,20,13,05,19.20
2011,09,20,13,06,19.20
2011,09,20,13,07,19.10
2011,09,20,13,08,19.00
2011,09,20,13,09,18.90
2011,09,20,13,10,18.90
2011,09,20,13,11,19.00
2011,09,20,13,12,19.10
2011,09,20,13,13,19.20
2011,09,20,13,14,19.30
2011,09,20,13,15,19.30
2011,09,20,13,16,19.40
2011,09,20,13,17,19.40
2011,09,20,13,18,19.50
2011,09,20,13,19,19.60
2011,09,20,13,20,19.70
2011,09,20,13,21,19.80
2011,09,20,13,22,19.80
2011,09,20,13,23,19.80
2011,09,20,13,24,19.80
2011,09,20,13,25,19.90
2011,09,20,13,26,19.90
2011,09,20,13,27,19.90
2011,09,20,13,28,20.10
2011,09,20,13,29,20.00
2011,09,20,13,30,20.00
2011,09,20,13,31,20.00
2011,09,20,13,32,19.90
2011,09,20,13,33,19.90
2011,09,20,13,34,19.90
2011,09,20,13,35,19.70
2011,09,20,13,36,19.60
2011,09,20,13,37,19.40
2011,09,20,13,38,19.30
2011,09,20,13,39,19.30
2011,09,20,13,40,19.30
2011,09,20,13,41,19.30
2011,09,20,13,42,19.30
2011,09,20,13,43,19.20
2011,09,20,13,44,19.20
2011,09,20,13,45,19.20
2011,09,20,13,46,19.10
2011,09,20,13,47,19.10
2011,09,20,13,48,19.10
2011,09,20,13,49,19.20
2011,09,20,13,50,19.30
2011,09,20,13,51,19.60
2011,09,20,13,52,19.70
2011,09,20,13,53,19.80
2011,09,20,13,54,19.80
2011,09,20,13,55,20.00
2011,09,20,13,56,20.10
2011,09,20,13,57,20.10
2011,09,20,13,58,19.90
2011,09,20,13,59,19.80
2011,09,20,14,00,19.70
2011,09,20,14,01,19.60
2011,09,20,14,02,19.60
2011,09,20,14,03,19.60
2011,09,20,14,04,19.60
2011,09,20,14,05,19.60
2011,09,20,14,06,19.50
2011,09,20,14,07,19.50
2011,09,20,14,08,19.60
2011,09,20,14,09,19.70
2011,09,20,14,10,20.00
2011,09,20,14,11,20.10
2011,09,20,14,12,20.00
2011,09,20,14,13,19.80
2011,09,20,14,14,19.80
2011,09,20,14,15,19.80
2011,09,20,14,16,19.80
2011,09,20,14,17,19.80
2011,09,20,14,18,19.90
2011,09,20,14,19,20.00
2011,09,20,14,20,20.10
2011,09,20,14,21,20.00
2011,09,20,14,22,19.80
2011,09,20,14,23,19.80
2011,09,20,14,24,19.70
2011,09,20,14,25,19.60
2011,09,20,14,26,19.60
2011,09,20,14,27,19.70
2011,09,20,14,28,19.80
2011,09,20,14,29,19.90
2011,09,20,14,30,20.00
2011,09,20,14,31,20.10
2011,09,20,14,32,20.20
2011,09,20,14,33,20.20
2011,09,20,14,34,20.20
2011,09,20,14,35,20.10
2011,09,20,14,36,20.00
2011,09,20,14,37,19.90
2011,09,20,14,38,19.90
2011,09,20,14,39,20.00
2011,09,20,14,40,20.10
2011,09,20,14,41,20.20
2011,09,20,14,42,20.30
2011,09,20,14,43,20.40
2011,09,20,14,44,20.50
2011,09,20,14,45,20.70
2011,09,20,14,46,20.80
2011,09,20,14,47,20.70
2011,09,20,14,48,20.70
2011,09,20,14,49,20.80
2011,09,20,14,50,21.00
2011,09,20,14,51,21.10
2011,09,20,14,52,21.20
2011,09,20,14,53,21.10
2011,09,20,14,54,21.10
2011,09,20,14,55,21.00
2011,09,20,14,56,21.00
2011,09,20,14,57,21.10
2011,09,20,14,58,21.20
2011,09,20,14,59,21.30
2011,09,20,15,00,21.40
2011,09,20,15,01,21.40
2011,09,20,15,02,21.40
2011,09,20,15,03,21.50
2011,09,20,15,04,21.60
2011,09,20,15,05,21.60
2011,09,20,15,06,21.60
2011,09,20,15,07,21.70
2011,09,20,15,08,21.80
2011,09,20,15,09,21.80
2011,09,20,15,10,21.90
2011,09,20,15,11,21.70
2011,09,20,15,12,21.60
2011,09,20,15,13,21.60
2011,09,20,15,14,21.50
2011,09,20,15,15,21.40
2011,09,20,15,16,21.30
2011,09,20,15,17,21.30
2011,09,20,15,18,21.10
2011,09,20,15,19,20.80
2011,09,20,15,20,20.50
2011,09,20,15,21,20.30
2011,09,20,15,22,20.20
2011,09,20,15,23,20.10
2011,09,20,15,24,19.80
2011,09,20,15,25,19.50
2011,09,20,15,26,19.40
2011,09,20,15,27,19.20
2011,09,20,15,28,19.10
2011,09,20,15,29,19.00
2011,09,20,15,30,18.90
2011,09,20,15,31,18.70
2011,09,20,15,32,18.60
2011,09,20,15,33,18.50
2011,09,20,15,34,18.30
2011,09,20,15,35,18.20
2011,09,20,15,36,18.20
2011,09,20,15,37,18.20
2011,09,20,15,38,18.20
2011,09,20,15,39,18.20
2011,09,20,15,40,18.20
2011,09,20,15,41,18.30
2011,09,20,15,42,18.30
2011,09,20,15,43,18.30
2011,09,20,15,44,18.30
2011,09,20,15,45,18.30
2011,09,20,15,46,18.30
2011,09,20,15,47,18.30
2011,09,20,15,48,18.40
2011,09,20,15,49,18.50
2011,09,20,15,50,18.60
2011,09,20,15,51,18.70
2011,09,20,15,52,18.70
2011,09,20,15,53,18.90
2011,09,20,15,54,19.10
2011,09,20,15,55,19.20
2011,09,20,15,56,19.20
2011,09,20,15,57,19.20
2011,09,20,15,58,19.20
2011,09,20,15,59,19.30
2011,09,20,16,00,19.30
2011,09,20,16,01,19.40
2011,09,20,16,02,19.40
2011,09,20,16,03,19.30
2011,09,20,16,04,19.30
2011,09,20,16,05,19.30
2011,09,20,16,06,19.30
2011,09,20,16,07,19.30
2011,09,20,16,08,19.20
2011,09,20,16,09,19.10
2011,09,20,16,10,19.10
2011,09,20,16,11,19.20
2011,09,20,16,12,19.20
2011,09,20,16,13,19.20
2011,09,20,16,14,19.10
2011,09,20,16,15,19.10
2011,09,20,16,16,19.10
2011,09,20,16,17,19.00
2011,09,20,16,18,18.90
2011,09,20,16,19,18.90
2011,09,20,16,20,18.80
2011,09,20,16,21,18.80
2011,09,20,16,22,18.80
2011,09,20,16,23,18.70
2011,09,20,16,24,18.60
2011,09,20,16,25,18.60
2011,09,20,16,26,18.60
2011,09,20,16,27,18.60
2011,09,20,16,28,18.60
2011,09,20,16,29,18.50
2011,09,20,16,30,18.50
2011,09,20,16,31,18.40
2011,09,20,16,32,18.40
2011,09,20,16,33,18.40
2011,09,20,16,34,18.40
2011,09,20,16,35,18.40
2011,09,20,16,36,18.40
2011,09,20,16,37,18.30
2011,09,20,16,38,18.30
2011,09,20,16,39,18.30
2011,09,20,16,40,18.30
2011,09,20,16,41,18.30
2011,09,20,16,42,18.30
2011,09,20,16,43,18.40
2011,09,20,16,44,18.40
2011,09,20,16,45,18.40
2011,09,20,16,46,18.50
2011,09,20,16,47,18.50
2011,09,20,16,48,18.60
2011,09,20,16,49,18.70
2011,09,20,16,50,18.70
2011,09,20,16,51,18.70
2011,09,20,16,52,18.80
2011,09,20,16,53,18.80
2011,09,20,16,54,18.80
2011,09,20,16,55,18.70
2011,09,20,16,56,18.70
2011,09,20,16,57,18.80
2011,09,20,16,58,18.80
2011,09,20,16,59,18.80
2011,09,20,17,00,18.70
2011,09,20,17,01,18.70
2011,09,20,17,02,18.70
2011,09,20,17,03,18.70
2011,09,20,17,04,18.70
2011,09,20,17,05,18.70
2011,09,20,17,06,18.70
2011,09,20,17,07,18.80
2011,09,20,17,08,18.70
2011,09,20,17,09,18.70
2011,09,20,17,10,18.70
2011,09,20,17,11,18.70
2011,09,20,17,12,18.70
2011,09,20,17,13,18.70
2011,09,20,17,14,18.70
2011,09,20,17,15,18.70
2011,09,20,17,16,18.80
2011,09,20,17,17,18.80
2011,09,20,17,18,18.90
2011,09,20,17,19,18.90
2011,09,20,17,20,18.90
2011,09,20,17,21,18.90
2011,09,20,17,22,18.90
2011,09,20,17,23,18.80
2011,09,20,17,24,18.80
2011,09,20,17,25,18.80
2011,09,20,17,26,18.80
2011,09,20,17,27,18.90
2011,09,20,17,28,18.90
2011,09,20,17,29,18.90
2011,09,20,17,30,18.90
2011,09,20,17,31,18.90
2011,09,20,17,32,18.90
2011,09,20,17,33,18.90
2011,09,20,17,34,18.90
2011,09,20,17,35,18.90
2011,09,20,17,36,19.00
2011,09,20,17,37,19.10
2011,09,20,17,38,19.10
2011,09,20,17,39,19.20
2011,09,20,17,40,19.30